Weather in Karratha

Australia     20°44′11″S   116°50′42″E
temp.,
°C
wind,
m/s
gust,
m/s
humid.,
%
clouds,
%
prec.,
mm/h
press.,
hPa
HPBL,
m
27 january, wed
wed2723:00+30wsw1013576 0.0 1002503
02:00+30sw710294 0.0 1001234
05:00+29ssw611280 0.0 1001287
08:00+33s79210 0.0 1002555
11:00+38sse23170 0.0 10011516
14:00+38nw87230 0.0 10001036
17:00+35wnw1011310 0.0 999672
20:00+31w913490 0.0 1000401
28 january, thu
thu2823:00+30w812560 0.0 1002339
02:00+31wsw69400 0.0 1001168
05:00+30ssw57220 0.0 1001112
08:00+35se610180 0.0 1002610
11:00+40e77160 0.0 10011320
14:00+39ne88280 0.0 10001259
17:00+35nnw67380 0.0 999584
20:00+33w46410 0.0 1001216
29 january, fri
fri2923:00+31wnw46570 0.0 1002268
02:00+30wnw46700 0.0 1000248
05:00+29wnw456966 0.0 1001145
08:00+32wnw334933 0.0 1002426
11:00+35n54370 0.0 1002662
14:00+34nne87450 0.0 1001827
17:00+32n66530 0.0 1000612
20:00+30nw676719 0.0 1002418
30 january, sat
sat3023:00+29nnw0165100 0.0 1004802
02:00+29n2264100 0.0 1003431
05:00+29ne126552 0.0 1003447
08:00+30nnw115976 0.0 1004422
11:00+34n344748 0.0 10041585
14:00+31nnw456172 1.1 1002445
17:00+31wnw5361100 1.8 1002701
20:00+30wsw6664100 2.0 1002608
31 january, sun
sun3123:00+29s3463100 0.3 1004771
02:00+29se71262100 2.6 10021304
05:00+26sse101570100 3.7 10001028
08:00+28s121668100 10.6 10001258
11:00+30sse131958100 0.8 9981770
14:00+28se172472100 6.5 9931453
17:00+29se192668100 2.3 9921641
20:00+28ese192473100 4.3 9931351